Location: ??
(34.9170°N, 135.5016°E)
Time: 18:14:39
(UTC+00:00)

ALOS - Pass Details

Date: 29 October 2020
Orbit: 684 x 684 km, 97.9° (Epoch: 30 November)

Event Time Altitude Azimuth Distance (km) Brightness Sun altitude
Rises 18:55:35 0° 22° (NNE) 3,052 5.9 -29.5°
Reaches altitude 10° 18:58:00 10° 31° (NNE) 2,133 5.2 -29.0°
Maximum altitude 19:02:16 35° 98° (E) 1,094 3.8 -28.1°
Drops below altitude 10° 19:06:31 10° 164° (SSE) 2,120 4.9 -27.2°
Sets 19:08:54 0° 173° (S) 3,031 5.7 -26.8°
